Location: Newark
(55.8372°N, 37.1596°E)
Time: 11:58:49
(UTC+00:00)

Envisat - Pass Details

Date: 22 October 2019
Orbit: 764 x 766 km, 98.1° (Epoch: 14 November)

Event Time Altitude Azimuth Distance (km) Brightness Sun altitude
Rises 16:17:23 0° 193° (SSW) 3,224 6.3 -17.8°
Reaches altitude 10° 16:19:54 10° 203° (SSW) 2,303 5.7 -18.1°
Maximum altitude 16:24:26 32° 266° (W) 1,301 4.9 -18.8°
Drops below altitude 10° 16:29:00 10° 330° (NNW) 2,317 6.0 -19.4°
Sets 16:31:33 0° 340° (NNW) 3,248 6.7 -19.8°
